Printer-friendly version

IAU Minor Planet Center

Minor Planet Center

MPEC 2006-T30 : 2001 SH262 = 2006 RK60

The following Minor Planet Electronic Circular may be linked-to from your own Web pages, but must not otherwise be redistributed electronically.


Read MPEC 2006-T29 Read MPEC 2006-T31


M.P.E.C. 2006-T30                                Issued 2006 Oct. 4, 16:28 UT

     The Minor Planet Electronic Circulars contain information on unusual
         minor planets and routine data on comets.  They are published
   on behalf of Commission 20 of the International Astronomical Union by the
          Minor Planet Center, Smithsonian Astrophysical Observatory,
                          Cambridge, MA 02138, U.S.A.

             Prepared using the Tamkin Foundation Computer Network

                              MPC@CFA.HARVARD.EDU
          URL http://cfa-www.harvard.edu/iau/mpc.html  ISSN 1523-6714

                            2001 SH262 = 2006 RK60

                           Revision to MPEC 2001-S41

Orbital elements:
2001 SH262 = 2006 RK60
Epoch 2006 Sept. 22.0 TT = JDT 2454000.5                MPC
M 336.86390              (2000.0)            P               Q
n   0.20685845     Peri.  297.36832     +0.06948742     -0.99704688
a   2.8315259      Node   148.59476     +0.93600049     +0.05382565
e   0.5079421      Incl.    3.59742     +0.34507185     +0.05477521
P   4.76           H   16.7           G   0.15           U   4
Residuals in seconds of arc
010919 704  0.7+  0.3-    010922 046  0.9+  0.0     060920 699  0.5-  0.2-
010919 704  0.1-  0.3+    010923 658  0.2-  0.4-    060920 699  0.5+  0.1-
010919 704  0.4-  0.3-    010923 658  0.7-  0.3+    060926 704  0.0   0.4+
010920 704  0.1-  0.0     010923 658  0.4-  0.5-    060926 704  0.6-  0.2+
010920 291  0.3+  0.2+    010924 644  0.1+  0.5-    060926 704  0.1-  0.4+
010920 291  0.0   0.1-    010924 644  0.6+  0.2+    060926 704  1.1+  1.2+
010920 291  0.2+  0.0     010925 649  0.1-  0.1-    060926 704  0.2+  0.0
010920 649  0.4-  0.1+    010925 649  0.2+  0.3+    060929 699  0.3-  0.1-
010920 704  0.2+  0.4+    010925 649  0.0   0.3-    060929 699  0.0   0.3+
010920 704  0.6-  0.8-    010926 711  0.7-  1.0-    060929 699  0.6+  0.8+
010920 649  0.3-  0.4-    010926 711  0.1+  1.3+    060929 699  0.2+  0.4-
010920 649  0.5+  0.8-    010926 711  0.4+  0.2-    060930 703  0.6-  0.3-
010921 704  0.2-  0.1+    060914 703  0.8+  0.3-    060930 703  0.0   0.1+
010921 704  0.3-  0.6+    060914 703  0.2-  1.0-    060930 703  0.4-  0.1-
010921 704  0.9-  0.5+    060914 703  0.2-  0.1-    060930 703  0.4-  0.3-
010921 704  1.1-  1.3+    060914 703  0.6-  0.9-
010922 046 (1.8-  2.2-)   060920 699  0.6+  0.1+

Ephemeris:
2001 SH262               a,e,i = 2.83, 0.51, 4                   q = 1.3933
Date    TT    R. A. (2000) Decl.     Delta      r     Elong.  Phase     V
2006 10 02    02 30.93   +08 11.7    0.783    1.724   149.9    16.9    18.3
2006 10 12    02 31.52   +07 13.6    0.699    1.671   159.3    12.2    17.8
2006 10 22    02 29.23   +06 02.4    0.633    1.620   168.1     7.3    17.3
2006 11 01    02 24.81   +04 48.9    0.585    1.573   170.5     6.0    17.0
2006 11 11    02 19.79   +03 48.1    0.556    1.530   162.8    11.1    17.0
2006 11 21    02 16.03   +03 14.6    0.543    1.491   152.7    17.7    17.2
2006 12 01    02 15.41   +03 19.8    0.544    1.459   143.1    24.0    17.3
2006 12 11    02 19.18   +04 06.6    0.557    1.432   134.5    29.4    17.5
2006 12 21    02 27.80   +05 31.7    0.580    1.412   127.1    33.8    17.7
2006 12 31    02 41.25   +07 27.5    0.611    1.399   120.9    37.1    17.9
2007 01 10    02 59.06   +09 43.6    0.649    1.393   115.7    39.5    18.0
2007 01 20    03 20.61   +12 09.3    0.694    1.396   111.4    41.0    18.2
2007 01 30    03 45.29   +14 34.3    0.747    1.406   107.7    41.9    18.4
2007 02 09    04 12.38   +16 48.8    0.809    1.423   104.5    42.2    18.6
2007 02 19    04 41.19   +18 45.2    0.879    1.448   101.5    42.0    18.9
2007 03 01    05 11.13   +20 18.1    0.959    1.479    98.6    41.5    19.1
2007 03 11    05 41.51   +21 24.4    1.049    1.515    95.8    40.7    19.3
2007 03 21    06 11.82   +22 03.3    1.148    1.557    92.8    39.7    19.5
2007 03 31    06 41.64   +22 15.7    1.256    1.602    89.8    38.6    19.8
2007 04 10    07 10.59   +22 04.0    1.373    1.652    86.7    37.3    20.0
2007 04 20    07 38.48   +21 30.9    1.497    1.704    83.4    35.8    20.2
2007 04 30    08 05.20   +20 39.6    1.629    1.759    79.9    34.3    20.4
2007 05 10    08 30.68   +19 33.3    1.767    1.815    76.3    32.7    20.6
2007 05 20    08 54.97   +18 14.9    1.909    1.873    72.5    31.0    20.8
2007 05 30    09 18.13   +16 46.7    2.055    1.932    68.6    29.2    21.0
2007 06 09    09 40.21   +15 11.3    2.204    1.992    64.6    27.4    21.1
2007 06 19    10 01.35   +13 30.2    2.353    2.052    60.4    25.5    21.3

Gareth V. Williams           (C) Copyright 2006 MPC           M.P.E.C. 2006-T30

Read MPEC 2006-T29 Read MPEC 2006-T31


Our Web policy. Index to the CBAT/MPC/ICQ pages.


Valid HTML 4.01!